Location: G�ppingen
(48.7000°N, 9.6670°E)
Time: 12:02:18
(UTC+02:00)

Tiangong 2 - Visible Passes

Search period start: 21 August 2017 00:00
Search period end: 31 August 2017 00:00
Orbit: 390 x 395 km, 42.8° (Epoch: 20 August)

Date Brightness Start Highest point End Pass type
(mag) Time Alt. Az. Time Alt. Az. Time Alt. Az.
22 Aug 3.1 04:58:46 15° S 04:59:49 17° SSE 05:02:00 10° ESE visible
23 Aug 3.9 04:04:19 10° SE 04:04:19 10° SE 04:04:29 10° SE visible
23 Aug 2.5 05:36:42 11° SW 05:39:16 26° S 05:42:01 10° ESE visible
24 Aug 2.7 04:42:14 22° S 04:42:21 22° SSE 04:44:57 10° ESE visible
25 Aug 2.3 05:20:10 18° SW 05:21:50 28° S 05:24:40 10° ESE visible
26 Aug 2.8 04:25:46 23° SE 04:25:46 23° SE 04:27:40 10° ESE visible
27 Aug 2.3 05:03:48 25° SSW 05:04:23 27° S 05:07:11 10° SE visible
28 Aug 3.6 04:09:32 15° SE 04:09:32 15° SE 04:10:14 10° ESE visible
28 Aug 2.8 05:41:55 12° WSW 05:43:48 19° SSW 05:46:10 10° SSE visible
29 Aug 2.8 04:47:47 20° SSE 04:47:47 20° SSE 04:49:30 10° SE visible
30 Aug 3.2 05:26:13 13° SSW 05:26:13 13° SSW 05:27:51 10° S visible
